Conway, MI

2:59 PM EST on February 06, 2016 (GMT -0500)
Harbor Springs

Weather History for KMGN - January, 2013

Change the Weather History Date:

Monday, January 7, 2013

  Actual Average (KPLN) Record (KPLN)
Temperature  
Mean Temperature 32 °F -  
Max Temperature 37 °F 23 °F 45 °F (2008)
Min Temperature 26 °F 5 °F -21 °F (1973)
Degree Days  
Heating Degree Days 34    
Moisture  
Dew Point 24 °F    
Average Humidity 71    
Maximum Humidity 77    
Minimum Humidity 61    
Precipitation  
Precipitation 0.00 in - - ()
Sea Level Pressure  
Sea Level Pressure 30.03 in    
Wind  
Wind Speed 10 mph (SW)    
Max Wind Speed 26 mph    
Max Gust Speed 36 mph    
Visibility 10 miles    
Events      
Averages and records for this station are not official NWS values.
T = Trace of Precipitation, MM = Missing Value Source: NWS Daily Summary

Daily Weather History Graph

Daily Weather History Graph

Search for Another Location

Airport or City:

Trip Planner

Search our weather history database for the weather conditions in past years. The results will help you decide how hot, cold, wet, or windy it might be!

Date:

Astronomy

Jan. 07, 2013 Rise Set
Actual Time 8:18 AM EST 5:13 PM EST
Civil Twilight 7:45 AM EST 5:47 PM EST
Nautical Twilight 7:08 AM EST 6:24 PM EST
Astronomical Twilight 6:32 AM EST 7:00 PM EST
Moon 3:38 AM EST (1/7) 1:26 PM EST (1/7)
Length of Visible Light 10h 02m
Length of Day
8h 54m
Waning Crescent, 23% of the Moon is Illuminated
Jan 7
Waning Crescent
Jan 11
New
Jan 18
First Quarter
Jan 26
Full
Feb 3
Last Quarter

Hourly Weather History & Observations

Time (EST) Temp. Windchill Dew Point Humidity Pressure Visibility Wind Dir Wind Speed Gust Speed Precip Events Conditions
12:35 AM 27.1 °F - 20.1 °F 75% 30.22 in 10.0 mi Calm Calm - N/A   Overcast
12:55 AM 26.6 °F - 19.8 °F 75% 30.20 in 10.0 mi Calm Calm - N/A   Overcast
1:14 AM 26.4 °F 22.4 °F 20.1 °F 77% 30.20 in 10.0 mi SE 3.5 mph - N/A   Overcast
1:35 AM 26.4 °F 22.4 °F 19.9 °F 77% 30.21 in 10.0 mi East 3.5 mph - N/A   Overcast
1:55 AM 28.0 °F 18.1 °F 20.1 °F 72% 30.21 in 10.0 mi SW 11.5 mph 16.1 mph N/A   Overcast
2:14 AM 28.0 °F 19.3 °F 19.8 °F 71% 30.21 in 10.0 mi SW 9.2 mph - N/A   Mostly Cloudy
2:35 AM 28.0 °F 19.3 °F 19.8 °F 71% 30.21 in 10.0 mi SW 9.2 mph 16.1 mph N/A   Mostly Cloudy
2:54 AM 28.0 °F 20.8 °F 19.9 °F 72% 30.20 in 10.0 mi SSW 6.9 mph - N/A   Mostly Cloudy
3:14 AM 28.0 °F 19.3 °F 20.7 °F 74% 30.21 in 10.0 mi SSW 9.2 mph - N/A   Overcast
3:35 AM 28.0 °F 20.8 °F 21.0 °F 75% 30.20 in 10.0 mi SSW 6.9 mph - N/A   Overcast
3:54 AM 28.0 °F 21.7 °F 21.0 °F 75% 30.19 in 10.0 mi South 5.8 mph - N/A   Overcast
4:14 AM 28.0 °F 21.7 °F 21.0 °F 75% 30.19 in 10.0 mi South 5.8 mph - N/A   Overcast
4:35 AM 28.0 °F 20.8 °F 20.8 °F 74% 30.18 in 10.0 mi South 6.9 mph - N/A   Overcast
4:54 AM 28.0 °F 21.7 °F 20.8 °F 74% 30.18 in 10.0 mi South 5.8 mph - N/A   Overcast
5:15 AM 28.0 °F 22.8 °F 20.8 °F 74% 30.16 in 10.0 mi South 4.6 mph - N/A   Overcast
5:35 AM 28.0 °F 21.7 °F 20.7 °F 74% 30.16 in 10.0 mi South 5.8 mph - N/A   Overcast
5:54 AM 28.0 °F 21.7 °F 21.0 °F 75% 30.15 in 10.0 mi South 5.8 mph - N/A   Overcast
6:15 AM 28.0 °F 21.7 °F 21.2 °F 76% 30.15 in 10.0 mi South 5.8 mph - N/A   Overcast
6:34 AM 28.0 °F 20.8 °F 21.2 °F 76% 30.14 in 10.0 mi South 6.9 mph - N/A   Overcast
6:54 AM 28.2 °F 20.2 °F 21.2 °F 75% 30.15 in 10.0 mi SSW 8.1 mph - N/A   Overcast
7:34 AM 29.7 °F 22.0 °F 22.8 °F 76% 30.14 in 10.0 mi SSW 8.1 mph - N/A   Overcast
7:55 AM 30.6 °F 20.2 °F 23.9 °F 76% 30.12 in 10.0 mi SSW 13.8 mph 20.7 mph N/A   Overcast
8:15 AM 30.6 °F 21.2 °F 23.9 °F 76% 30.11 in 10.0 mi SSW 11.5 mph 20.7 mph N/A   Overcast
8:34 AM 30.4 °F 20.0 °F 23.9 °F 77% 30.10 in 10.0 mi SSW 13.8 mph 20.7 mph N/A   Overcast
8:55 AM 29.5 °F 19.3 °F 23.0 °F 77% 30.10 in 10.0 mi SSW 12.7 mph 21.9 mph N/A   Overcast
9:15 AM 30.2 °F 19.8 °F 23.7 °F 77% 30.10 in 10.0 mi SSW 13.8 mph 19.6 mph N/A   Scattered Clouds
9:34 AM 29.8 °F 20.3 °F 23.0 °F 76% 30.09 in 10.0 mi SSW 11.5 mph 16.1 mph N/A   Clear
10:15 AM 30.6 °F 21.2 °F 23.2 °F 74% 30.09 in 10.0 mi SSW 11.5 mph 17.3 mph N/A   Clear
10:34 AM 31.6 °F 21.6 °F 23.9 °F 73% 30.08 in 10.0 mi SW 13.8 mph 20.7 mph N/A   Clear
10:55 AM 32.9 °F 22.4 °F 24.4 °F 71% 30.07 in 10.0 mi SW 16.1 mph 24.2 mph N/A   Clear
11:15 AM 32.9 °F 22.0 °F 23.7 °F 69% 30.05 in 10.0 mi SSW 17.3 mph 25.3 mph N/A   Clear
11:34 AM 32.9 °F 22.4 °F 23.4 °F 68% 30.03 in 10.0 mi SW 16.1 mph 26.5 mph N/A   Clear
11:55 AM 34.2 °F 23.3 °F 24.3 °F 67% 30.00 in 10.0 mi SW 18.4 mph 26.5 mph N/A   Clear
12:15 PM 35.2 °F 25.0 °F 24.1 °F 64% 29.99 in 10.0 mi SW 17.3 mph 27.6 mph N/A   Clear
12:34 PM 35.2 °F 24.7 °F 23.9 °F 63% 29.97 in 10.0 mi SW 18.4 mph 34.5 mph N/A   Clear
12:55 PM 35.2 °F 24.7 °F 23.9 °F 63% 29.96 in 10.0 mi SW 18.4 mph 27.6 mph N/A   Clear
1:15 PM 35.8 °F 24.8 °F 24.4 °F 63% 29.94 in 10.0 mi SW 20.7 mph 32.2 mph N/A   Clear
1:34 PM 37.4 °F 26.1 °F 25.9 °F 63% 29.92 in 10.0 mi SW 24.2 mph 33.4 mph N/A   Clear
2:14 PM 37.6 °F 28.1 °F 25.7 °F 62% 29.90 in 10.0 mi SW 17.3 mph 27.6 mph N/A   Clear
2:34 PM 37.6 °F 27.4 °F 25.5 °F 62% 29.89 in 10.0 mi SW 19.6 mph 31.1 mph N/A   Clear
2:55 PM 37.6 °F 26.6 °F 25.7 °F 62% 29.88 in 10.0 mi SSW 23.0 mph 29.9 mph N/A   Clear
3:14 PM 37.8 °F 26.8 °F 25.5 °F 61% 29.87 in 10.0 mi SW 23.0 mph 34.5 mph N/A   Clear
3:35 PM 37.6 °F 27.4 °F 25.5 °F 62% 29.85 in 10.0 mi SSW 19.6 mph 31.1 mph N/A   Clear
3:55 PM 37.6 °F 27.4 °F 25.7 °F 62% 29.86 in 10.0 mi SW 19.6 mph 32.2 mph N/A   Clear
4:14 PM 37.9 °F 27.9 °F 26.1 °F 62% 29.87 in 10.0 mi SW 19.6 mph 26.5 mph N/A   Clear
4:35 PM 37.6 °F 27.4 °F 25.7 °F 62% 29.88 in 10.0 mi SW 19.6 mph 29.9 mph N/A   Clear
4:55 PM 37.6 °F 27.7 °F 26.4 °F 64% 29.89 in 10.0 mi SW 18.4 mph 23.0 mph N/A   Clear
5:14 PM 37.6 °F 27.7 °F 27.0 °F 66% 29.88 in 10.0 mi WSW 18.4 mph 31.1 mph N/A   Clear
5:35 PM 37.6 °F 25.9 °F 27.0 °F 66% 29.88 in 10.0 mi SW 26.5 mph 35.7 mph N/A   Clear
6:14 PM 37.6 °F 26.9 °F 28.2 °F 69% 29.88 in 10.0 mi SW 21.9 mph 34.5 mph N/A   Scattered Clouds
6:35 PM 37.6 °F 27.1 °F 28.4 °F 69% 29.89 in 10.0 mi SW 20.7 mph 33.4 mph N/A   Clear
6:55 PM 37.6 °F 27.1 °F 28.8 °F 70% 29.89 in 10.0 mi WSW 20.7 mph 32.2 mph N/A   Clear
7:14 PM 37.4 °F 27.5 °F 28.8 °F 71% 29.89 in 10.0 mi SW 18.4 mph 26.5 mph N/A   Clear
7:35 PM 36.3 °F 27.1 °F 28.4 °F 73% 29.90 in 10.0 mi WSW 15.0 mph 25.3 mph N/A   Scattered Clouds
7:55 PM 36.3 °F 26.4 °F 28.6 °F 74% 29.90 in 10.0 mi SW 17.3 mph 26.5 mph N/A   Clear
8:14 PM 36.3 °F 26.8 °F 29.1 °F 75% 29.91 in 10.0 mi SW 16.1 mph 23.0 mph N/A   Scattered Clouds
8:35 PM 36.3 °F 27.5 °F 29.1 °F 75% 29.91 in 10.0 mi SW 13.8 mph 23.0 mph N/A   Scattered Clouds
8:55 PM 36.1 °F 26.2 °F 29.3 °F 76% 29.90 in 10.0 mi SW 17.3 mph 21.9 mph N/A   Scattered Clouds
9:14 PM 36.5 °F 27.0 °F 29.3 °F 75% 29.90 in 10.0 mi SW 16.1 mph 21.9 mph N/A   Clear
9:35 PM 37.6 °F 27.7 °F 29.3 °F 72% 29.90 in 10.0 mi SW 18.4 mph 31.1 mph N/A   Clear
9:55 PM 37.6 °F 28.8 °F 29.3 °F 72% 29.91 in 10.0 mi WSW 15.0 mph 23.0 mph N/A   Clear
10:35 PM 36.5 °F 27.8 °F 28.6 °F 73% 29.91 in 10.0 mi WSW 13.8 mph 25.3 mph N/A   Clear
10:54 PM 36.3 °F 27.1 °F 28.4 °F 73% 29.92 in 10.0 mi WSW 15.0 mph 26.5 mph N/A   Clear
11:14 PM 36.0 °F 26.0 °F 28.4 °F 74% 29.92 in 10.0 mi SW 17.3 mph 24.2 mph N/A   Clear
11:54 PM 35.2 °F 25.4 °F 28.4 °F 76% 29.93 in 10.0 mi WSW 16.1 mph 21.9 mph N/A   Clear